Race Results for
MNSCS #5 Bluff Riders Charge
ManKato, MN
(Event Information)
View By:
Cross Country on 07/10/2005

Note: Ranking points are NOT upgrade points. An explanation of ranking points can be found here.


Men - SP - Junior - 12-15

 Place Points NameCity, StateTime USAC #BibTeam
1Matt Riley   1:22:29.7  1451 

Men - SP - Junior - 16-18

 Place Points NameCity, StateTime USAC #BibTeam
1Bret Romberg   1:09:26.5  1472 
2Aaron Deutchman   1:15:57.0  1508 
DNFNoah Gostout     1448 
DNFJeremy Lewerenz     1487 
DNFBryan Randt     1492 

Men - SP - Senior - 19-29

 Place Points NameCity, StateTime USAC #BibTeam
1Dave Oachs   1:40:38.9  2487 
2Jason Wenk   1:42:06.5  2508 
3Barry Tungseth   1:45:57.6  2480 
4David Meyer   1:46:25.1  2495 
5John Wenger   1:47:25.6  2492 
6Paul Venable   1:52:38.8  2499 
7David Osterhouse   1:54:37.0  2484 
8Andy Schlicht   1:59:07.5  2506 
9Karl Nelson   2:00:26.0  2496 
10Matthew Kurke   1:04:48.6  1464 
11Jeremiah Stevens   1:06:04.0  1463 
12Bruce Martens   1:07:11.2  1471 
13Rori Stumvoll   1:07:59.7  1450 
14Aron Stumvoll   1:09:14.6  1452 
15Raymond Nickles   1:10:17.8  1431 
16Nate Ryder   1:10:31.2  1439 
17Justin Reinbold   1:11:18.2  1441 
18Erik Grove   1:12:01.6  1429 
19Gregory Stanis   1:12:25.1  1498 
20Ross Deopere   1:13:31.6  1477 
21Nick Caliva   River Falls, WI1:14:40.9 227751  1455 
22Steve Sturman   1:15:22.4  1466 
23Paul Weiss   1:20:00.0  1445 
24Chad Czmowski   1:21:21.8  1489 
25Riley Proctor   1:23:12.3  1399 
26Rob Lutterman   1:28:22.8  1482 
27Steven Bergman   1:29:09.3  1410 
28Isaac Mitchell   1:34:20.1  1433 
29Dan Brazil   1:35:58.8  1486 
DNFRyan Lee     2513 
DNFJames Martens     1469 
DNFRoss Sailor     1476 
DNFNicholis Statz     1354 

Men - SP - Master - 30-39

 Place Points NameCity, StateTime USAC #BibTeam
1Tim Stone   1:44:55.1  2489 
2Jeff Lewis   Delano, MN1:47:17.6 211617  2504 
3Marc Wiken   1:47:24.8  2493 
4Richard Fiske   1:49:55.3  2494 
5Jason Gaines   1:50:53.3  2483 
6Andrew Chaffe   Saint Paul, MN1:51:07.9 159664  2514 
7Joel Ingvalson   1:52:31.9  2476 
8Mario Minelli   1:52:44.2  2472 
9Kent Karjala   1:53:26.7  2481 
10Chad Peckels   1:54:10.5  2475 
11Adam Emanoff   1:56:57.2  2474 
12Jon Friedell   1:57:40.8  2490 
13Brandt Elson   Breezy Point, MN2:00:04.2 208462  2488 
14Robert Golin   2:03:27.1  2502 
15Heath Weisbrod   Saint Louis Park, MN1:06:03.8 228026  1456 
16Mark Patridge   1:06:58.2  1467 
17Matthew Johnson   1:08:58.3  1493 
18Sean Nelson   1:09:30.3  1447 
19Rick Ochs   1:09:36.0  1442 
20Dusty Bennett   1:10:53.7  1506 
21Matthew Busch   1:10:55.5  1436 
22Ken Simonelic   Phoenix, AZ1:11:43.2 165334  1459 
23Scott Schultz   1:11:52.3  1465 
24Brian Longley   1:12:16.4  1426 
25Matthew Horner   1:12:26.3  1412 
26Chris Van Ert   1:12:50.5  1423 
27Ton Tran   1:14:57.2  1509 
28Jacob Huct   1:15:16.7  1353 
29Brad Haugen   1:16:27.9  1475 
30Chris Luehder   1:16:42.5  1499 
31Michael Busch   1:17:23.5  1435 
32Lee Bengel   1:18:11.1  1438 
33Darren Bloch   1:19:22.3  1474 
34Tom Anderson   1:19:24.5  1454 
35Jim Jaglo   1:19:47.0  1494 
36Brett Schleis   1:20:01.9  1468 
37Rich Omdahl   1:21:05.9  1425 
38Josh Squires   1:21:13.4  1437 
39Lance Hauge   1:22:08.9  1507 
40Tim Wiley   1:22:19.4  1483 
41Brent Bruessel   1:22:51.5  1495 
42Bruce Klehr   1:24:53.7  1417 
43Neil Adams   1:26:50.9  1409 
44Joe Pedersen   1:28:36.9  1444 
45Michael Soderburg   1:31:28.7  1449 
46Mike Roettger   1:33:38.4  1432 
47Craig Juhnke   1:35:12.6  1490 
48Tony Lema   1:36:21.8  1501 
DNFShane Kullman   St Paul, MN 19986  2473 
DNFCraig Rudd     2503 
DNFTaylor Kearns     1457 
DNFBrian Lawrence     1481 
DNFRoger Danson     1500 
DNFMichael Seys     1470 

Men - SP - Master - 40-49

 Place Points NameCity, StateTime USAC #BibTeam
1Corey Stuhr   Minnetonka, MN1:47:58.3 209639  2497 
2Thomas (Tom) Rinehart   Mankato, MN1:50:10.6 163255  2505 
3Wallace Alexander   1:51:08.9  2509 
4Rob Whiteford   1:51:35.1  2485 
5Tom QUINN   1:54:44.2  2510 
6John Romberg   1:54:44.9  2479 
7Tim Boyle   1:55:07.4  2511 
8Thomas Thornquest   Golden Valley, MN1:56:33.2 147521  2491 
9Brad Dettman   1:58:09.8  2512 
10Paul Schoening   1:59:52.7  2501 
11Thomas Rheineck   2:01:24.6  2498 
12Gregg Pattison   1:05:51.9  1488 
13Phil Rogers   1:08:25.9  1420 
14Paul Santa Cruz   1:08:59.6  1419 
15Gary Friedell   1:10:00.4  1496 
16Dave Stoen   1:11:04.0  1497 
17Andy Schweitzer   1:11:04.5  1453 
18Jack Baker   1:12:25.8  1491 
19Leon Sternberg   1:13:15.9  1505 
20Rob Belz   1:13:50.0  1484 
21Todd Trembley   Faribault, MN1:16:06.6 217961  1503 
22Andre Chromey   Wanamingo, MN1:17:00.1 118064  1458 
23Scott McClure   1:20:57.5  1446 
24Ross Lubrant   1:23:29.0  1511 
25Steve Johnson   2:00:34.5  1424 
DNFJohn Evingson     1414 
DNFGary Smith     1434 
DNFRick Diehl     1473 
DNFTodd Koukal     1462 

Men - SP - Master - 50-99

 Place Points NameCity, StateTime USAC #BibTeam
1Rob Ogren   1:57:03.6  2500 
2Gary Sjoquist   2:25:19.2  2507 
3Keith Kaufman   1:14:07.6  1485 
4John Klug   1:16:13.8  1413 
5Tom Bengel   1:16:17.2  1428 
6John Schmidt   1:19:38.9  1478 
7Gary Hakala   1:22:34.9  1460 
8Maynard Johnson   1:22:51.6  1479 
9Rodney Garayt   1:31:08.6  1422 
10Paul Mihalko   1:40:22.5  1427 
DNFDewayne Bonnett     2482 
DNFDan Meyer     2486 

Men - EX - Junior - 14-18

 Place Points NameCity, StateTime USAC #BibTeam
DNFJeremy Venable   Ankeny, IA 194862  18 
DNFChristopher Ziegler   Detroit Lakes Mn 199197  594 

Men - EX - Senior - 19-34

 Place Points NameCity, StateTime USAC #BibTeam
2Jesse Rients   Shakopee, MN1:55:09.2 147524  13 
4Brady Larson   Mankato, MN1:57:58.6 230900  22 
5Luke Nelson   Anoka, MN1:59:16.9 135538  12 
6Brendan Moore   Prior Lake, MN1:59:49.3 210366  27 
7Samuel Oftedahl   Shoreview, MN1:59:57.6 211093  598 
8Tim Norrie   Minneapolis, MN2:01:49.1 101445  11 
9Scott Ralston   Farmington, MN2:01:59.1 69393  597 
10Christopher Fisher   Inver Grove Heights, MN2:02:25.2 182827  
11Benjamin Portilla   Oakland, CA2:04:22.2 208016  25 
12Jeff Herrera   Tempe, AZ2:09:51.3 210732  599 
13Caleb Bonnett   Strawberry Point, IA2:10:45.2 218880  
14Ben Moore   Boulder, CO2:11:53.2 228791  21 
15Tom MILLER   2:13:43.5  19 
18Mike Schroden   Saint Cloud, MN2:26:00.0 206703  
DNFDouglas Swanson   Minnetonka, MN 102633  23 
DNFMatthew Kriegler   Honolulu, HI 199211  24 
DNFEric Oftedahl   Shoreview, MN 210080  596 

Men - EX - Master - 35-99

 Place Points NameCity, StateTime USAC #BibTeam
1Jan Rybar   Apple Valley, MN2:04:13.7 98534  
2Ed Alpasa   Maple Grove, MN2:04:41.3 160673  16 
3Mark Hartney   Afton Mn2:11:16.6 15314  20 
4Charlie Farrow   Duluth, MN2:12:17.8 134448  17 
5Jeff Weyrens   Rosemount, MN2:14:14.4 76843  14 
6Tim Ek   Duluth, MN2:17:28.5 151367  591 
7Eric Guse   St Louis Park, MN2:22:57.3 211199  15 
DNFTodd McFadden   Duluth, MN 134734  

Men - BG - Junior - 10-12

 Place Points NameCity, StateTime USAC #BibTeam
1Luke Baker   42:06.1  3242 
2Shea Franken   48:54.0  3219 
3Jake Richards   54:22.9  3234 
4Brady Moran   54:23.6  3240 
DNFIan Mongeau     3250 

Men - BG - Junior - 13-15

 Place Points NameCity, StateTime USAC #BibTeam
1Raleigh Goessling   38:33.4  3218 
2Brian Jorgensen   43:31.7  3260 
3Erik Jorgensen   46:44.0  3259 
4Kellen Garrett   1:16:10.7  3233 

Men - BG - Junior - 16-18

 Place Points NameCity, StateTime USAC #BibTeam
1Kenny Smith   45:28.8  3257 
2Ben Riley   46:09.0  3258 

Men - BG - Senior - 19-29

 Place Points NameCity, StateTime USAC #BibTeam
1Mike Hanzlik   41:17.1  3247 
2Matthew Morse   43:18.6  3222 
3John Schneider   44:48.2  3245 
4Brian Splettstoeszer   46:15.1  3227 

Men - BG - Master - 30-39

 Place Points NameCity, StateTime USAC #BibTeam
1Thomas McDonald   40:40.8  3241 
2Chris Boet   41:45.2  3226 
3Eric Hawkinson   42:55.8  3244 
4Shane Birch   44:23.1  3220 
5Chad McGregor   55:24.4  3229 

Men - BG - Master - 40-49

 Place Points NameCity, StateTime USAC #BibTeam
1Scott Buscher   39:20.4  3228 
2Kevin Knutson   46:08.7  3230 
3Bill Franken   46:13.8  3225 
4Keith Holloman   50:44.6  3231 
5Duane Painney   51:03.6  3246 
6Eric Finney   1:00:18.9  3238 
7Jim Holst   1:01:09.0  3237 
8Dan Garrett   1:16:10.9  3232 

Men - BG - Master - 50-99

 Place Points NameCity, StateTime USAC #BibTeam
1John Leighton   44:15.3  3221 
2Charles Morrison   46:11.3  3223 
3Mick Mohrlant   47:58.5  3255 
4Bill Miller   48:22.1  3251 
5Larry Marx   48:42.1  3224 
6Rory Deutchman   55:16.8  3249 

Women - SP - Senior - 20-34

 Place Points NameCity, StateTime USAC #BibTeam
11Andrea Bergman   1:30:30.4  1411 
12Becca Jo Ryder   1:32:13.1  1440 
13Jennifer Grant   1:33:13.8  1461 
14Alison Maas   1:40:49.3  1480 
DNFIngrid Melander     1430 

Women - SP - Master - 35-99

 Place Points NameCity, StateTime USAC #BibTeam
1Beckie Alexander   1:24:28.4  1510 
2Tiffany Rittler Foley   1:29:29.3  1418 
3Kris Brazil   1:29:33.0  1502 
4Jodie Karjala   1:30:44.7  1504 
5Lisa Pearson   1:43:12.1  1421 
6Kim Wapola   1:56:05.2  1512 
DNFKathie Evingson     1415 
DNFKimberly Wack     1443 

Women - EX - Senior - 14-29

 Place Points NameCity, StateTime USAC #BibTeam
1Maria Stewart   Honolulu, HI2:01:45.1 202383  10 
2Jennifer Meyer   Inver Grove Heights, MN2:04:20.0 212052  
DNFJune Sayers   Duluth, MN 149107  595 

Women - BG - Junior - 0-18

 Place Points NameCity, StateTime USAC #BibTeam
1Allison Baker   52:19.4  3243 
2Emily Seidl   56:01.6  3253 
3Maxee Whiteford   58:03.9  3261 
4Liz Seidl   1:13:41.3  3252 

Women - BG - Senior - 19-29

 Place Points NameCity, StateTime USAC #BibTeam
1Sarah Barrett   49:30.3  3235 
2Danielle Deopere   1:06:36.9  3248 

Women - BG - Master - 30-39

 Place Points NameCity, StateTime USAC #BibTeam
1Julie Wilbert   49:56.4  3239 
2Rebecca McClure   51:45.1  3254 
3Andrea Horner   55:01.9  3177 

Women - BG - Master - 40-99

 Place Points NameCity, StateTime USAC #BibTeam
1Jill Koski   46:49.7  3236 
2Bobbie Gostout   55:01.3  3256 

Report missing or incorrect license numbers

Volkswagen
ShimanoUSACDFSpyBonk BreakerSierra Nevada
UCI USA Cycling is the official governing body for all disciplines of competitive cycling in the United States. The 501c3, membership-based organization aims both to achieve sustained success in international cycling competition and to grow competitive cycling in America while delivering an exceptional customer experience.
View Children's Online Privacy Protection Policy
US Olympic Committee